| time (UTC) | temp F | wind direction | speed MPH | gust MPH | rain 1hr in | rain 24hr in | rain mn in | humidity % | barometer mb |
| 20260505184016 | 62 | 225 | 11.0 | 28.0 | 0.00 | 0.00 | 0.00 | 44 | 1016.3 |
| 20260505183036 | 62 | 203 | 14.0 | 26.0 | 0.00 | 0.00 | 0.00 | 44 | 1016.1 |
| 20260505182016 | 62 | 203 | 14.0 | 31.0 | 0.00 | 0.00 | 0.00 | 43 | 1016.2 |
| 20260505181016 | 62 | 225 | 14.0 | 29.0 | 0.00 | 0.00 | 0.00 | 43 | 1016.8 |
| 20260505180016 | 62 | 225 | 13.0 | 25.0 | 0.00 | 0.00 | 0.00 | 43 | 1016.7 |
| 20260505175016 | 62 | 203 | 14.0 | 26.0 | 0.00 | 0.00 | 0.00 | 43 | 1016.7 |
| 20260505174017 | 62 | 225 | 13.0 | 24.0 | 0.00 | 0.00 | 0.00 | 43 | 1016.6 |
| 20260505173036 | 62 | 225 | 12.0 | 24.0 | 0.00 | 0.00 | 0.00 | 41 | 1016.5 |
| 20260505172016 | 62 | 248 | 8.0 | 21.0 | 0.00 | 0.00 | 0.00 | 38 | 1016.4 |
| 20260505171016 | 60 | 225 | 10.0 | 21.0 | 0.00 | 0.00 | 0.00 | 37 | 1017.1 |
| 20260505170056 | 61 | 248 | 11.0 | 26.0 | 0.00 | 0.00 | 0.00 | 32 | 1016.8 |
| 20260505165016 | 63 | 225 | 6.0 | 15.0 | 0.00 | 0.00 | 0.00 | 30 | 1016.9 |
| 20260505164036 | 61 | 248 | 11.0 | 22.0 | 0.00 | 0.00 | 0.00 | 31 | 1017.1 |
| 20260505163015 | 60 | 225 | 11.0 | 27.0 | 0.00 | 0.00 | 0.00 | 33 | 1016.4 |
| 20260505162016 | 59 | 270 | 11.0 | 23.0 | 0.00 | 0.00 | 0.00 | 33 | 1016.7 |
| 20260505161015 | 59 | 248 | 13.0 | 25.0 | 0.00 | 0.00 | 0.00 | 35 | 1016.7 |
| 20260505153018 | 58 | 225 | 12.0 | 24.0 | 0.00 | 0.00 | 0.00 | 38 | 1016.1 |
| 20260505152037 | 58 | 225 | 10.0 | 22.0 | 0.00 | 0.00 | 0.00 | 42 | 1016.1 |
| 20260505151017 | 58 | 248 | 8.0 | 16.0 | 0.00 | 0.00 | 0.00 | 46 | 1016.2 |
| 20260505125017 | 54 | 270 | 8.0 | 18.0 | 0.00 | 0.00 | 0.00 | 48 | 1014.8 |
| 20260505124037 | 54 | 248 | 9.0 | 20.0 | 0.00 | 0.00 | 0.00 | 48 | 1014.5 |
| 20260505123017 | 54 | 248 | 8.0 | 24.0 | 0.00 | 0.00 | 0.00 | 47 | 1014.3 |
| 20260505122017 | 54 | 225 | 7.0 | 18.0 | 0.00 | 0.00 | 0.00 | 47 | 1014.5 |
| 20260505121017 | 55 | 248 | 13.0 | 29.0 | 0.00 | 0.00 | 0.00 | 46 | 1015.0 |
| 20260505120017 | 55 | 225 | 10.0 | 22.0 | 0.00 | 0.00 | 0.00 | 46 | 1015.1 |
| 20260505115017 | 54 | 248 | 8.0 | 19.0 | 0.00 | 0.00 | 0.00 | 46 | 1015.2 |
| 20260505114057 | 55 | 248 | 9.0 | 18.0 | 0.00 | 0.00 | 0.00 | 46 | 1015.1 |
| 20260505113017 | 55 | 248 | 10.0 | 26.0 | 0.00 | 0.00 | 0.00 | 46 | 1015.1 |
| 20260505112057 | 55 | 248 | 10.0 | 28.0 | 0.00 | 0.00 | 0.00 | 45 | 1015.3 |
| 20260505111017 | 55 | 248 | 9.0 | 24.0 | 0.00 | 0.00 | 0.00 | 45 | 1015.7 |
| 20260505102037 | 56 | 225 | 8.0 | 18.0 | 0.00 | 0.00 | 0.00 | 44 | 1015.6 |
| 20260505101017 | 56 | 225 | 9.0 | 21.0 | 0.00 | 0.00 | 0.00 | 43 | 1015.2 |
| 20260505100016 | 56 | 248 | 7.0 | 20.0 | 0.00 | 0.00 | 0.00 | 42 | 1015.3 |
| 20260505095057 | 57 | 225 | 8.0 | 21.0 | 0.00 | 0.00 | 0.00 | 41 | 1015.4 |
| 20260505094016 | 57 | 225 | 9.0 | 24.0 | 0.00 | 0.00 | 0.00 | 41 | 1015.9 |
| 20260505093037 | 57 | 225 | 9.0 | 27.0 | 0.00 | 0.00 | 0.00 | 40 | 1016.0 |
| 20260505092017 | 57 | 225 | 10.0 | 22.0 | 0.00 | 0.00 | 0.00 | 39 | 1016.0 |
| 20260505091017 | 57 | 225 | 8.0 | 25.0 | 0.00 | 0.00 | 0.00 | 39 | 1016.6 |
| 20260505090016 | 57 | 248 | 9.0 | 22.0 | 0.00 | 0.00 | 0.00 | 38 | 1016.9 |
| 20260505085036 | 58 | 248 | 10.0 | 24.0 | 0.00 | 0.00 | 0.00 | 38 | 1017.0 |
| 20260505084016 | 58 | 248 | 11.0 | 27.0 | 0.00 | 0.00 | 0.00 | 37 | 1017.6 |
| 20260505083016 | 58 | 248 | 9.0 | 19.0 | 0.00 | 0.00 | 0.00 | 37 | 1018.0 |
| 20260505082037 | 58 | 248 | 7.0 | 18.0 | 0.00 | 0.00 | 0.00 | 37 | 1017.9 |
| 20260505081016 | 58 | 248 | 8.0 | 18.0 | 0.00 | 0.00 | 0.00 | 37 | 1018.2 |
| 20260505080016 | 58 | 248 | 9.0 | 19.0 | 0.00 | 0.00 | 0.00 | 36 | 1018.2 |
| 20260505075016 | 58 | 248 | 8.0 | 22.0 | 0.00 | 0.00 | 0.00 | 37 | 1018.3 |
| 20260505074016 | 58 | 270 | 8.0 | 19.0 | 0.00 | 0.00 | 0.00 | 36 | 1018.6 |
| 20260505073016 | 58 | 248 | 9.0 | 22.0 | 0.00 | 0.00 | 0.00 | 36 | 1018.6 |
| 20260505072016 | 58 | 270 | 8.0 | 19.0 | 0.00 | 0.00 | 0.00 | 36 | 1018.6 |
| 20260505071016 | 58 | 270 | 6.0 | 14.0 | 0.00 | 0.00 | 0.00 | 37 | 1018.0 |
| 20260505070016 | 58 | 270 | 7.0 | 16.0 | 0.00 | 0.00 | 0.00 | 36 | 1018.2 |
| 20260505065016 | 58 | 270 | 5.0 | 16.0 | 0.00 | 0.00 | 0.00 | 35 | 1018.3 |
| 20260505064016 | 58 | 270 | 7.0 | 16.0 | 0.00 | 0.00 | 0.00 | 33 | 1017.9 |
| 20260505063016 | 58 | 248 | 6.0 | 13.0 | 0.00 | 0.00 | 0.00 | 34 | 1018.0 |
| 20260505062016 | 58 | 248 | 5.0 | 13.0 | 0.00 | 0.00 | 0.00 | 34 | 1017.8 |
| 20260505061041 | 59 | 225 | 8.0 | 20.0 | 0.00 | 0.00 | 0.00 | 33 | 1018.4 |
| 20260505060036 | 59 | 225 | 6.0 | 17.0 | 0.00 | 0.00 | 0.00 | 33 | 1018.8 |
| 20260505055016 | 59 | 225 | 7.0 | 18.0 | 0.00 | 0.00 | 0.00 | 33 | 1018.5 |
| 20260505054016 | 60 | 225 | 7.0 | 20.0 | 0.00 | 0.00 | 0.00 | 33 | 1018.6 |
| 20260505053016 | 60 | 225 | 8.0 | 23.0 | 0.00 | 0.00 | 0.00 | 33 | 1018.7 |
| 20260505052015 | 60 | 248 | 7.0 | 16.0 | 0.00 | 0.00 | 0.00 | 33 | 1019.1 |
| 20260505051016 | 60 | 225 | 6.0 | 17.0 | 0.00 | 0.00 | 0.00 | 34 | 1018.5 |
| 20260505041037 | 61 | 203 | 6.0 | 18.0 | 0.00 | 0.00 | 0.00 | 33 | 1019.4 |
| 20260505040017 | 61 | 225 | 7.0 | 18.0 | 0.00 | 0.00 | 0.00 | 33 | 1019.4 |
| 20260505035017 | 61 | 203 | 7.0 | 14.0 | 0.00 | 0.00 | 0.00 | 33 | 1019.2 |
| 20260505034018 | 61 | 225 | 8.0 | 18.0 | 0.00 | 0.00 | 0.00 | 33 | 1018.6 |
| 20260505033017 | 61 | 203 | 8.0 | 25.0 | 0.00 | 0.00 | 0.00 | 33 | 1018.6 |
| 20260505032017 | 61 | 225 | 7.0 | 20.0 | 0.00 | 0.00 | 0.00 | 33 | 1018.7 |
| 20260505031017 | 61 | 225 | 7.0 | 17.0 | 0.00 | 0.00 | 0.00 | 33 | 1018.6 |
| 20260505030017 | 61 | 225 | 7.0 | 23.0 | 0.00 | 0.00 | 0.00 | 33 | 1018.5 |
| 20260505025017 | 61 | 225 | 7.0 | 18.0 | 0.00 | 0.00 | 0.00 | 33 | 1018.4 |
| 20260505024017 | 61 | 225 | 6.0 | 14.0 | 0.00 | 0.00 | 0.00 | 33 | 1018.1 |
| 20260505023017 | 61 | 225 | 7.0 | 19.0 | 0.00 | 0.00 | 0.00 | 33 | 1017.9 |
| 20260505022017 | 61 | 225 | 8.0 | 20.0 | 0.00 | 0.00 | 0.00 | 33 | 1017.9 |
| 20260505021017 | 62 | 225 | 7.0 | 17.0 | 0.00 | 0.00 | 0.00 | 33 | 1017.1 |
| 20260505020017 | 62 | 225 | 6.0 | 19.0 | 0.00 | 0.00 | 0.00 | 32 | 1017.0 |
| 20260505015018 | 62 | 225 | 4.0 | 11.0 | 0.00 | 0.00 | 0.00 | 32 | 1017.6 |
| 20260505014017 | 62 | 203 | 5.0 | 21.0 | 0.00 | 0.00 | 0.00 | 30 | 1016.6 |
| 20260505013017 | 62 | 203 | 5.0 | 15.0 | 0.00 | 0.00 | 0.00 | 30 | 1017.0 |
| 20260505012017 | 62 | 203 | 4.0 | 18.0 | 0.00 | 0.00 | 0.00 | 29 | 1016.9 |
| 20260505011017 | 63 | 225 | 5.0 | 18.0 | 0.00 | 0.00 | 0.00 | 29 | 1016.8 |
| 20260505010017 | 63 | 225 | 5.0 | 15.0 | 0.00 | 0.00 | 0.00 | 29 | 1017.0 |
| 20260505005017 | 63 | 203 | 6.0 | 23.0 | 0.00 | 0.00 | 0.00 | 28 | 1016.9 |
| 20260505004017 | 64 | 203 | 4.0 | 17.0 | 0.00 | 0.00 | 0.00 | 29 | 1017.2 |
| 20260505003017 | 64 | 203 | 3.0 | 12.0 | 0.00 | 0.00 | 0.00 | 31 | 1017.7 |
| 20260505002017 | 65 | 203 | 3.0 | 14.0 | 0.00 | 0.00 | 0.00 | 30 | 1017.7 |
| 20260505001037 | 66 | 203 | 3.0 | 11.0 | 0.00 | 0.00 | 0.00 | 30 | 1017.4 |
| 20260505000017 | 66 | 225 | 5.0 | 14.0 | 0.00 | 0.00 | 0.00 | 29 | 1017.8 |
| 20260504235017 | 67 | 225 | 6.0 | 15.0 | 0.00 | 0.01 | 0.00 | 29 | 1018.4 |
| 20260504234017 | 68 | 203 | 5.0 | 15.0 | 0.00 | 0.01 | 0.00 | 29 | 1018.7 |
| 20260504233057 | 67 | 203 | 8.0 | 20.0 | 0.00 | 0.01 | 0.00 | 29 | 1018.3 |
| 20260504232017 | 67 | 225 | 8.0 | 17.0 | 0.00 | 0.01 | 0.00 | 29 | 1018.4 |
| 20260504231017 | 68 | 203 | 8.0 | 17.0 | 0.00 | 0.01 | 0.00 | 30 | 1018.6 |
| 20260504230018 | 67 | 248 | 9.0 | 20.0 | 0.00 | 0.01 | 0.00 | 31 | 1017.9 |
| 20260504225017 | 68 | 225 | 9.0 | 21.0 | 0.00 | 0.01 | 0.00 | 30 | 1018.3 |
| 20260504224017 | 70 | 225 | 7.0 | 19.0 | 0.00 | 0.01 | 0.00 | 30 | 1018.3 |
| 20260504223017 | 69 | 270 | 6.0 | 20.0 | 0.00 | 0.01 | 0.00 | 31 | 1018.6 |
| 20260504222016 | 68 | 248 | 8.0 | 19.0 | 0.00 | 0.01 | 0.00 | 32 | 1018.4 |
| 20260504221016 | 67 | 248 | 10.0 | 20.0 | 0.00 | 0.01 | 0.00 | 32 | 1018.7 |
| 20260504220017 | 65 | 270 | 9.0 | 19.0 | 0.00 | 0.01 | 0.00 | 33 | 1018.1 |
| 20260504215016 | 65 | 270 | 6.0 | 15.0 | 0.00 | 0.01 | 0.00 | 33 | 1018.4 |
| 20260504214016 | 64 | 270 | 7.0 | 16.0 | 0.00 | 0.01 | 0.00 | 32 | 1017.9 |
| 20260504213017 | 65 | 225 | 5.0 | 18.0 | 0.00 | 0.01 | 0.00 | 30 | 1018.1 |
| 20260504212017 | 65 | 248 | 7.0 | 17.0 | 0.00 | 0.01 | 0.00 | 30 | 1018.4 |
| 20260504211016 | 65 | 270 | 8.0 | 18.0 | 0.00 | 0.01 | 0.00 | 26 | 1018.3 |
| 20260504210016 | 66 | 270 | 8.0 | 17.0 | 0.00 | 0.02 | 0.00 | 26 | 1018.2 |
| 20260504205016 | 67 | 270 | 8.0 | 16.0 | 0.00 | 0.02 | 0.00 | 25 | 1018.6 |
| 20260504204016 | 67 | 270 | 8.0 | 22.0 | 0.00 | 0.02 | 0.00 | 25 | 1018.6 |
| 20260504203016 | 68 | 270 | 8.0 | 17.0 | 0.00 | 0.02 | 0.00 | 21 | 1018.4 |
| 20260504202016 | 69 | 270 | 9.0 | 19.0 | 0.00 | 0.02 | 0.00 | 21 | 1019.0 |
| 20260504201016 | 69 | 270 | 10.0 | 18.0 | 0.00 | 0.02 | 0.00 | 21 | 1018.4 |
| 20260504200016 | 69 | 270 | 7.0 | 16.0 | 0.00 | 0.03 | 0.00 | 23 | 1018.8 |
| 20260504195016 | 69 | 270 | 6.0 | 16.0 | 0.00 | 0.03 | 0.00 | 25 | 1018.9 |
| 20260504194016 | 69 | 270 | 4.0 | 12.0 | 0.00 | 0.03 | 0.00 | 25 | 1019.2 |
| 20260504193016 | 68 | 270 | 6.0 | 16.0 | 0.00 | 0.03 | 0.00 | 25 | 1019.3 |
| 20260504192016 | 68 | 270 | 5.0 | 15.0 | 0.00 | 0.03 | 0.00 | 26 | 1019.4 |
| 20260504191016 | 68 | 293 | 4.0 | 13.0 | 0.00 | 0.03 | 0.00 | 28 | 1020.2 |
| 20260504190016 | 67 | 270 | 5.0 | 13.0 | 0.00 | 0.03 | 0.00 | 26 | 1019.8 |
| 20260504185016 | 67 | 270 | 5.0 | 15.0 | 0.00 | 0.03 | 0.00 | 28 | 1019.9 |